Weather in Pervomayskoe

Russia / Saint-Petersburg and Leningrad Oblast     60°21′29″N   29°44′17″E
temp.,
°C
wind,
m/s
gust,
m/s
humid.,
%
clouds,
%
prec.,
mm/h
press.,
hPa
HPBL,
m
19 april, mon
mon1900:00+5ene410782 0.0 1030238
03:00+4ene38905 0.0 1030159
06:00+3ene38890 0.0 1030168
09:00+6ene47651 0.0 1030363
12:00+9ene46435 0.0 1029746
15:00+10ene56380 0.0 1029834
18:00+9ene46394 0.0 1028681
21:00+5ne410540 0.0 1028242
20 april, tue
tue2000:00+4ene49685 0.0 1027185
03:00+3e367587 0.0 1026101
06:00+2ene3771100 0.0 1025138
09:00+5e4759100 0.0 1025371
12:00+8ese46440 0.0 10231157
15:00+9ese46375 0.0 10211423
18:00+9ese463968 0.0 10191572
21:00+5ene385789 0.0 1018164
21 april, wed
wed2100:00+5e2673100 0.0 1017133
03:00+4ese3781100 0.1 1015294
06:00+3ene3597100 1.4 1012541
09:00+3ene3597100 2.2 1010418
12:00+3ne2596100 0.9 1007422
15:00+2ene3797100 3.1 1006359
18:00+2nne2597100 1.9 1004262
21:00+2n2499100 3.1 1003229
22 april, thu
thu2200:00+1nw1299100 0.8 1002152
03:00+2w2599100 1.9 1002277
06:00+2wsw3798100 0.4 1003309
09:00+2wsw3797100 0.6 1004340
12:00+3wsw359099 0.1 1006462
15:00+6wsw257441 0.1 1007652
18:00+7sw2472100 0.0 1008467
21:00+4ene218689 0.0 100911
23 april, fri
fri2300:00+5sse2291100 0.7 100858
03:00+4sw4898100 4.8 1008293
06:00+3wsw3698100 0.0 1009281
09:00+3ssw2392100 0.0 1009264
12:00+6ssw2477100 0.1 1009811
15:00+5ssw2584100 0.6 1009483
18:00+6s1372100 0.1 1008435
21:00+5se238498 0.1 100750